Time,TemperatureF,DewpointF,PressureIn,WindDirection,WindDirectionDegrees,WindSpeedMPH,WindSpeedGustMPH,Humidity,HourlyPrecipIn,Conditions,Clouds,dailyrainin,SoftwareType,DateUTC
2013-01-10 00:00:00,27.7,21.1,30.41,NW,319,0.0,17.0,76,0.00,,,0.00,Wunderground v.1.15,2013-01-10 06:00:00,
2013-01-10 00:05:00,27.4,20.8,30.40,NW,319,0.0,17.0,76,0.00,,,0.00,Wunderground v.1.15,2013-01-10 06:05:00,
2013-01-10 00:15:00,26.2,19.7,30.39,NW,319,0.0,17.0,76,0.00,,,0.00,Wunderground v.1.15,2013-01-10 06:15:00,
2013-01-10 00:20:00,25.7,19.5,30.39,NW,319,0.0,17.0,77,0.00,,,0.00,Wunderground v.1.15,2013-01-10 06:20:00,
2013-01-10 00:25:00,25.5,19.6,30.38,NW,319,0.0,17.0,78,0.00,,,0.00,Wunderground v.1.15,2013-01-10 06:25:00,
2013-01-10 00:30:00,25.4,19.8,30.38,NW,319,0.0,17.0,79,0.00,,,0.00,Wunderground v.1.15,2013-01-10 06:30:00,
2013-01-10 00:35:00,25.1,19.5,30.38,NW,319,0.0,17.0,79,0.00,,,0.00,Wunderground v.1.15,2013-01-10 06:35:00,
2013-01-10 00:40:00,24.7,19.4,30.39,NW,319,0.0,17.0,80,0.00,,,0.00,Wunderground v.1.15,2013-01-10 06:40:00,
2013-01-10 00:45:00,24.0,18.4,30.40,NW,319,0.0,17.0,79,0.00,,,0.00,Wunderground v.1.15,2013-01-10 06:45:00,
2013-01-10 00:50:00,23.8,18.8,30.39,NW,319,0.0,17.0,81,0.00,,,0.00,Wunderground v.1.15,2013-01-10 06:50:00,
2013-01-10 00:55:00,23.6,18.6,30.40,NW,319,0.0,17.0,81,0.00,,,0.00,Wunderground v.1.15,2013-01-10 06:55:00,
2013-01-10 01:00:00,23.5,18.5,30.40,NW,319,0.0,17.0,81,0.00,,,0.00,Wunderground v.1.15,2013-01-10 07:00:00,
2013-01-10 01:10:00,23.4,19.0,30.42,NW,319,0.0,17.0,83,0.00,,,0.00,Wunderground v.1.15,2013-01-10 07:10:00,
2013-01-10 01:20:00,23.2,18.8,30.42,NW,319,0.0,17.0,83,0.00,,,0.00,Wunderground v.1.15,2013-01-10 07:20:00,
2013-01-10 01:25:00,23.1,18.7,30.42,NW,319,0.0,17.0,83,0.00,,,0.00,Wunderground v.1.15,2013-01-10 07:25:00,
2013-01-10 01:30:00,23.0,18.6,30.43,NW,319,0.0,17.0,83,0.00,,,0.00,Wunderground v.1.15,2013-01-10 07:30:00,
2013-01-10 01:35:00,22.8,18.4,30.43,NW,319,0.0,17.0,83,0.00,,,0.00,Wunderground v.1.15,2013-01-10 07:35:00,
2013-01-10 01:45:00,22.6,18.5,30.44,NW,319,0.0,17.0,84,0.00,,,0.00,Wunderground v.1.15,2013-01-10 07:45:00,
2013-01-10 01:50:00,22.6,18.5,30.44,West,269,0.0,17.0,84,0.00,,,0.00,Wunderground v.1.15,2013-01-10 07:50:00,
2013-01-10 02:00:00,24.0,20.4,30.45,WSW,244,2.0,2.0,86,0.00,,,0.00,Wunderground v.1.15,2013-01-10 08:00:00,
2013-01-10 02:05:00,24.5,20.6,30.45,West,270,2.0,17.0,85,0.00,,,0.00,Wunderground v.1.15,2013-01-10 08:05:00,
2013-01-10 02:10:00,24.5,20.6,30.46,West,270,1.0,1.0,85,0.00,,,0.00,Wunderground v.1.15,2013-01-10 08:10:00,
2013-01-10 02:15:00,24.4,20.3,30.46,West,270,0.0,17.0,84,0.00,,,0.00,Wunderground v.1.15,2013-01-10 08:15:00,
2013-01-10 02:20:00,24.3,20.2,30.46,West,270,0.0,17.0,84,0.00,,,0.00,Wunderground v.1.15,2013-01-10 08:20:00,
2013-01-10 02:25:00,24.1,20.0,30.46,West,270,0.0,17.0,84,0.00,,,0.00,Wunderground v.1.15,2013-01-10 08:25:00,
2013-01-10 02:30:00,24.0,19.9,30.47,West,270,0.0,17.0,84,0.00,,,0.00,Wunderground v.1.15,2013-01-10 08:30:00,
2013-01-10 02:35:00,23.8,19.7,30.46,West,270,0.0,17.0,84,0.00,,,0.00,Wunderground v.1.15,2013-01-10 08:35:00,
2013-01-10 02:45:00,23.6,19.8,30.47,West,270,0.0,17.0,85,0.00,,,0.00,Wunderground v.1.15,2013-01-10 08:45:00,
2013-01-10 02:50:00,23.6,19.8,30.48,West,270,0.0,17.0,85,0.00,,,0.00,Wunderground v.1.15,2013-01-10 08:50:00,
2013-01-10 02:55:00,23.5,19.7,30.48,West,270,0.0,17.0,85,0.00,,,0.00,Wunderground v.1.15,2013-01-10 08:55:00,
2013-01-10 03:00:00,23.1,19.3,30.48,West,270,0.0,17.0,85,0.00,,,0.00,Wunderground v.1.15,2013-01-10 09:00:00,
2013-01-10 03:05:00,22.8,19.0,30.48,West,270,0.0,17.0,85,0.00,,,0.00,Wunderground v.1.15,2013-01-10 09:05:00,
2013-01-10 03:10:00,22.6,18.8,30.48,West,270,0.0,17.0,85,0.00,,,0.00,Wunderground v.1.15,2013-01-10 09:10:00,
2013-01-10 03:15:00,22.2,18.4,30.48,West,270,0.0,17.0,85,0.00,,,0.00,Wunderground v.1.15,2013-01-10 09:15:00,
2013-01-10 03:20:00,22.1,18.3,30.48,West,270,0.0,17.0,85,0.00,,,0.00,Wunderground v.1.15,2013-01-10 09:20:00,
2013-01-10 03:30:00,22.1,18.6,30.48,West,270,0.0,17.0,86,0.00,,,0.00,Wunderground v.1.15,2013-01-10 09:30:00,
2013-01-10 03:35:00,22.6,19.3,30.47,West,270,0.0,17.0,87,0.00,,,0.00,Wunderground v.1.15,2013-01-10 09:35:00,
2013-01-10 03:40:00,22.7,19.1,30.48,West,270,0.0,17.0,86,0.00,,,0.00,Wunderground v.1.15,2013-01-10 09:40:00,
2013-01-10 03:45:00,23.1,19.8,30.48,West,264,0.0,17.0,87,0.00,,,0.00,Wunderground v.1.15,2013-01-10 09:45:00,
2013-01-10 03:50:00,23.9,20.6,30.48,West,264,1.0,1.0,87,0.00,,,0.00,Wunderground v.1.15,2013-01-10 09:50:00,
2013-01-10 03:55:00,24.2,20.9,30.49,West,264,1.0,17.0,87,0.00,,,0.00,Wunderground v.1.15,2013-01-10 09:55:00,
2013-01-10 04:00:00,24.8,21.5,30.48,West,267,1.0,1.0,87,0.00,,,0.00,Wunderground v.1.15,2013-01-10 10:00:00,
2013-01-10 04:05:00,25.1,21.8,30.49,West,267,1.0,17.0,87,0.00,,,0.00,Wunderground v.1.15,2013-01-10 10:05:00,
2013-01-10 04:10:00,25.2,21.9,30.49,West,267,1.0,17.0,87,0.00,,,0.00,Wunderground v.1.15,2013-01-10 10:10:00,
2013-01-10 04:15:00,25.6,22.3,30.49,West,281,1.0,17.0,87,0.00,,,0.00,Wunderground v.1.15,2013-01-10 10:15:00,
2013-01-10 04:20:00,25.8,22.5,30.49,WNW,297,2.0,17.0,87,0.00,,,0.00,Wunderground v.1.15,2013-01-10 10:20:00,
2013-01-10 04:25:00,26.0,22.4,30.49,NW,304,1.0,17.0,86,0.00,,,0.00,Wunderground v.1.15,2013-01-10 10:25:00,
2013-01-10 04:30:00,26.0,22.4,30.49,WNW,284,0.0,17.0,86,0.00,,,0.00,Wunderground v.1.15,2013-01-10 10:30:00,
2013-01-10 04:35:00,26.0,22.1,30.49,WNW,285,0.0,17.0,85,0.00,,,0.00,Wunderground v.1.15,2013-01-10 10:35:00,
2013-01-10 04:40:00,25.8,21.9,30.49,WNW,285,0.0,17.0,85,0.00,,,0.00,Wunderground v.1.15,2013-01-10 10:40:00,
2013-01-10 04:45:00,25.7,21.8,30.48,WNW,285,0.0,17.0,85,0.00,,,0.00,Wunderground v.1.15,2013-01-10 10:45:00,
2013-01-10 04:50:00,25.7,21.8,30.48,WNW,285,0.0,17.0,85,0.00,,,0.00,Wunderground v.1.15,2013-01-10 10:50:00,
2013-01-10 04:55:00,25.5,21.6,30.48,WNW,285,0.0,17.0,85,0.00,,,0.00,Wunderground v.1.15,2013-01-10 10:55:00,
2013-01-10 05:00:00,25.3,21.1,30.48,WNW,285,0.0,17.0,84,0.00,,,0.00,Wunderground v.1.15,2013-01-10 11:00:00,
2013-01-10 05:05:00,25.2,21.0,30.48,WNW,285,0.0,17.0,84,0.00,,,0.00,Wunderground v.1.15,2013-01-10 11:05:00,
2013-01-10 05:10:00,25.1,20.9,30.47,WNW,285,0.0,17.0,84,0.00,,,0.00,Wunderground v.1.15,2013-01-10 11:10:00,
2013-01-10 05:15:00,24.9,20.8,30.47,WNW,285,0.0,17.0,84,0.00,,,0.00,Wunderground v.1.15,2013-01-10 11:15:00,
2013-01-10 05:20:00,24.5,20.4,30.47,WNW,285,0.0,17.0,84,0.00,,,0.00,Wunderground v.1.15,2013-01-10 11:20:00,
2013-01-10 05:25:00,24.0,19.9,30.47,WNW,285,0.0,17.0,84,0.00,,,0.00,Wunderground v.1.15,2013-01-10 11:25:00,
2013-01-10 05:30:00,23.8,19.9,30.48,WNW,285,1.0,1.0,85,0.00,,,0.00,Wunderground v.1.15,2013-01-10 11:30:00,
2013-01-10 05:35:00,23.6,19.8,30.49,WNW,285,1.0,17.0,85,0.00,,,0.00,Wunderground v.1.15,2013-01-10 11:35:00,
2013-01-10 05:40:00,23.6,19.8,30.49,WNW,285,0.0,17.0,85,0.00,,,0.00,Wunderground v.1.15,2013-01-10 11:40:00,
2013-01-10 05:50:00,23.3,19.5,30.49,WNW,285,0.0,17.0,85,0.00,,,0.00,Wunderground v.1.15,2013-01-10 11:50:00,
2013-01-10 05:55:00,23.0,19.2,30.49,WNW,285,0.0,17.0,85,0.00,,,0.00,Wunderground v.1.15,2013-01-10 11:55:00,
2013-01-10 06:00:00,22.9,19.3,30.49,WNW,285,0.0,17.0,86,0.00,,,0.00,Wunderground v.1.15,2013-01-10 12:00:00,
2013-01-10 06:10:00,22.7,19.1,30.49,WNW,285,0.0,17.0,86,0.00,,,0.00,Wunderground v.1.15,2013-01-10 12:10:00,
2013-01-10 06:15:00,22.5,18.9,30.49,WNW,285,0.0,17.0,86,0.00,,,0.00,Wunderground v.1.15,2013-01-10 12:15:00,
2013-01-10 06:25:00,22.2,18.7,30.49,WNW,285,0.0,17.0,86,0.00,,,0.00,Wunderground v.1.15,2013-01-10 12:25:00,
2013-01-10 06:30:00,22.0,18.5,30.49,WNW,285,0.0,17.0,86,0.00,,,0.00,Wunderground v.1.15,2013-01-10 12:30:00,
2013-01-10 06:35:00,21.7,18.2,30.49,WNW,285,0.0,17.0,86,0.00,,,0.00,Wunderground v.1.15,2013-01-10 12:35:00,
2013-01-10 06:40:00,21.5,18.0,30.49,WNW,285,0.0,17.0,86,0.00,,,0.00,Wunderground v.1.15,2013-01-10 12:40:00,
2013-01-10 06:45:00,21.2,17.7,30.49,WNW,285,0.0,17.0,86,0.00,,,0.00,Wunderground v.1.15,2013-01-10 12:45:00,
2013-01-10 06:50:00,20.9,17.4,30.49,WNW,285,0.0,17.0,86,0.00,,,0.00,Wunderground v.1.15,2013-01-10 12:50:00,
2013-01-10 06:55:00,20.6,17.1,30.49,WNW,285,0.0,17.0,86,0.00,,,0.00,Wunderground v.1.15,2013-01-10 12:55:00,
2013-01-10 07:00:00,20.3,16.8,30.49,WNW,285,0.0,17.0,86,0.00,,,0.00,Wunderground v.1.15,2013-01-10 13:00:00,
2013-01-10 07:10:00,20.3,17.0,30.49,WNW,285,0.0,17.0,87,0.00,,,0.00,Wunderground v.1.15,2013-01-10 13:10:00,
2013-01-10 07:15:00,20.2,17.0,30.49,WNW,285,0.0,17.0,87,0.00,,,0.00,Wunderground v.1.15,2013-01-10 13:15:00,
2013-01-10 07:20:00,20.0,16.8,30.49,WNW,285,0.0,17.0,87,0.00,,,0.00,Wunderground v.1.15,2013-01-10 13:20:00,
2013-01-10 07:25:00,19.9,16.7,30.49,WNW,285,0.0,17.0,87,0.00,,,0.00,Wunderground v.1.15,2013-01-10 13:25:00,
2013-01-10 07:30:00,19.8,16.8,30.48,WNW,285,0.0,17.0,88,0.00,,,0.00,Wunderground v.1.15,2013-01-10 13:30:00,
2013-01-10 07:35:00,19.7,16.7,30.48,WNW,285,0.0,17.0,88,0.00,,,0.00,Wunderground v.1.15,2013-01-10 13:35:00,
2013-01-10 07:40:00,19.6,16.6,30.48,WNW,285,0.0,17.0,88,0.00,,,0.00,Wunderground v.1.15,2013-01-10 13:40:00,
2013-01-10 07:45:00,19.6,16.6,30.48,WNW,285,0.0,17.0,88,0.00,,,0.00,Wunderground v.1.15,2013-01-10 13:45:00,
2013-01-10 07:50:00,19.6,16.6,30.48,WNW,285,0.0,17.0,88,0.00,,,0.00,Wunderground v.1.15,2013-01-10 13:50:00,
2013-01-10 07:55:00,19.6,16.6,30.48,WNW,285,0.0,17.0,88,0.00,,,0.00,Wunderground v.1.15,2013-01-10 13:55:00,
2013-01-10 08:00:00,19.5,16.5,30.48,WNW,285,0.0,17.0,88,0.00,,,0.00,Wunderground v.1.15,2013-01-10 14:00:00,
2013-01-10 08:05:00,19.5,16.5,30.48,WNW,285,0.0,17.0,88,0.00,,,0.00,Wunderground v.1.15,2013-01-10 14:05:00,
2013-01-10 08:10:00,19.5,16.5,30.48,WNW,285,0.0,17.0,88,0.00,,,0.00,Wunderground v.1.15,2013-01-10 14:10:00,
2013-01-10 08:15:00,19.6,16.6,30.48,WNW,285,0.0,17.0,88,0.00,,,0.00,Wunderground v.1.15,2013-01-10 14:15:00,
2013-01-10 08:20:00,20.1,17.4,30.48,WNW,285,0.0,17.0,89,0.00,,,0.00,Wunderground v.1.15,2013-01-10 14:20:00,
2013-01-10 08:25:00,20.5,17.8,30.48,WNW,285,0.0,17.0,89,0.00,,,0.00,Wunderground v.1.15,2013-01-10 14:25:00,
2013-01-10 08:30:00,20.8,18.1,30.47,WNW,285,0.0,17.0,89,0.00,,,0.00,Wunderground v.1.15,2013-01-10 14:30:00,
2013-01-10 08:35:00,21.3,18.6,30.47,WNW,285,0.0,17.0,89,0.00,,,0.00,Wunderground v.1.15,2013-01-10 14:35:00,
2013-01-10 08:40:00,21.9,19.2,30.47,WNW,285,0.0,17.0,89,0.00,,,0.00,Wunderground v.1.15,2013-01-10 14:40:00,
2013-01-10 08:45:00,22.7,20.2,30.47,WNW,285,0.0,17.0,90,0.00,,,0.00,Wunderground v.1.15,2013-01-10 14:45:00,
2013-01-10 08:50:00,23.6,21.1,30.47,WNW,285,0.0,17.0,90,0.00,,,0.00,Wunderground v.1.15,2013-01-10 14:50:00,
2013-01-10 08:55:00,24.3,21.8,30.46,WNW,285,0.0,17.0,90,0.00,,,0.00,Wunderground v.1.15,2013-01-10 14:55:00,
2013-01-10 09:00:00,25.2,22.7,30.46,WNW,285,0.0,17.0,90,0.00,,,0.00,Wunderground v.1.15,2013-01-10 15:00:00,
2013-01-10 09:10:00,26.8,24.0,30.46,WNW,285,0.0,17.0,89,0.00,,,0.00,Wunderground v.1.15,2013-01-10 15:10:00,
2013-01-10 09:15:00,27.9,25.3,30.46,WNW,285,0.0,17.0,90,0.00,,,0.00,Wunderground v.1.15,2013-01-10 15:15:00,
2013-01-10 09:20:00,28.7,25.9,30.46,WNW,285,0.0,17.0,89,0.00,,,0.00,Wunderground v.1.15,2013-01-10 15:20:00,
2013-01-10 09:25:00,29.4,26.3,30.46,WNW,285,0.0,17.0,88,0.00,,,0.00,Wunderground v.1.15,2013-01-10 15:25:00,
2013-01-10 09:30:00,29.8,26.7,30.46,WNW,285,1.0,1.0,88,0.00,,,0.00,Wunderground v.1.15,2013-01-10 15:30:00,
2013-01-10 09:35:00,30.1,26.7,30.46,WNW,285,1.0,17.0,87,0.00,,,0.00,Wunderground v.1.15,2013-01-10 15:35:00,
2013-01-10 09:40:00,30.5,27.1,30.46,WNW,285,0.0,17.0,87,0.00,,,0.00,Wunderground v.1.15,2013-01-10 15:40:00,
2013-01-10 09:45:00,31.0,27.6,30.46,SSW,205,0.0,17.0,87,0.00,,,0.00,Wunderground v.1.15,2013-01-10 15:45:00,
2013-01-10 09:50:00,31.4,28.0,30.45,SSW,213,1.0,1.0,87,0.00,,,0.00,Wunderground v.1.15,2013-01-10 15:50:00,
2013-01-10 09:55:00,31.8,28.1,30.45,SSW,213,0.0,17.0,86,0.00,,,0.00,Wunderground v.1.15,2013-01-10 15:55:00,
2013-01-10 10:00:00,32.3,28.6,30.45,WSW,249,0.0,17.0,86,0.00,,,0.00,Wunderground v.1.15,2013-01-10 16:00:00,
2013-01-10 10:05:00,32.8,28.8,30.45,WSW,247,0.0,17.0,85,0.00,,,0.00,Wunderground v.1.15,2013-01-10 16:05:00,
2013-01-10 10:10:00,33.2,28.9,30.45,WSW,247,0.0,17.0,84,0.00,,,0.00,Wunderground v.1.15,2013-01-10 16:10:00,
2013-01-10 10:15:00,33.6,29.0,30.44,WSW,237,0.0,17.0,83,0.00,,,0.00,Wunderground v.1.15,2013-01-10 16:15:00,
2013-01-10 10:20:00,34.1,29.2,30.44,SW,219,2.0,17.0,82,0.00,,,0.00,Wunderground v.1.15,2013-01-10 16:20:00,
2013-01-10 10:25:00,34.7,29.2,30.44,WSW,237,2.0,17.0,80,0.00,,,0.00,Wunderground v.1.15,2013-01-10 16:25:00,
2013-01-10 10:30:00,35.1,29.2,30.44,SW,231,2.0,2.0,79,0.00,,,0.00,Wunderground v.1.15,2013-01-10 16:30:00,
2013-01-10 10:35:00,35.7,29.2,30.44,SW,230,3.0,3.0,77,0.00,,,0.00,Wunderground v.1.15,2013-01-10 16:35:00,
2013-01-10 10:40:00,36.0,29.2,30.44,SW,221,3.0,17.0,76,0.00,,,0.00,Wunderground v.1.15,2013-01-10 16:40:00,
2013-01-10 10:45:00,36.2,28.7,30.43,SSW,197,4.0,17.0,74,0.00,,,0.00,Wunderground v.1.15,2013-01-10 16:45:00,
2013-01-10 10:50:00,36.3,28.5,30.43,West,266,4.0,17.0,73,0.00,,,0.00,Wunderground v.1.15,2013-01-10 16:50:00,
2013-01-10 10:55:00,36.3,28.5,30.42,South,171,4.0,17.0,73,0.00,,,0.00,Wunderground v.1.15,2013-01-10 16:55:00,
2013-01-10 11:00:00,36.3,28.8,30.42,SSW,203,3.0,3.0,74,0.00,,,0.00,Wunderground v.1.15,2013-01-10 17:00:00,
2013-01-10 11:05:00,36.2,28.4,30.42,SW,224,2.0,17.0,73,0.00,,,0.00,Wunderground v.1.15,2013-01-10 17:05:00,
2013-01-10 11:10:00,36.1,28.6,30.41,SSW,205,2.0,17.0,74,0.00,,,0.00,Wunderground v.1.15,2013-01-10 17:10:00,
2013-01-10 11:15:00,36.0,28.2,30.41,SSW,194,2.0,17.0,73,0.00,,,0.00,Wunderground v.1.15,2013-01-10 17:15:00,
2013-01-10 11:20:00,36.1,28.3,30.41,SSW,193,2.0,17.0,73,0.00,,,0.00,Wunderground v.1.15,2013-01-10 17:20:00,
2013-01-10 11:25:00,36.5,28.7,30.41,SSW,204,2.0,17.0,73,0.00,,,0.00,Wunderground v.1.15,2013-01-10 17:25:00,
2013-01-10 11:30:00,36.8,29.0,30.40,SSE,161,1.0,1.0,73,0.00,,,0.00,Wunderground v.1.15,2013-01-10 17:30:00,
2013-01-10 11:35:00,37.4,29.2,30.40,South,173,1.0,2.0,72,0.00,,,0.00,Wunderground v.1.15,2013-01-10 17:35:00,
2013-01-10 11:40:00,37.7,29.1,30.39,South,186,2.0,17.0,71,0.00,,,0.00,Wunderground v.1.15,2013-01-10 17:40:00,
2013-01-10 11:45:00,37.9,29.7,30.39,South,183,2.0,17.0,72,0.00,,,0.00,Wunderground v.1.15,2013-01-10 17:45:00,
2013-01-10 11:50:00,37.9,29.3,30.39,South,174,3.0,3.0,71,0.00,,,0.00,Wunderground v.1.15,2013-01-10 17:50:00,
2013-01-10 11:55:00,37.9,29.3,30.39,South,188,3.0,17.0,71,0.00,,,0.00,Wunderground v.1.15,2013-01-10 17:55:00,
2013-01-10 12:00:00,37.9,29.3,30.39,SW,215,3.0,5.0,71,0.00,,,0.00,Wunderground v.1.15,2013-01-10 18:00:00,
2013-01-10 12:05:00,37.8,29.6,30.38,South,190,3.0,5.0,72,0.00,,,0.00,Wunderground v.1.15,2013-01-10 18:05:00,
2013-01-10 12:10:00,38.0,29.8,30.37,South,184,3.0,4.0,72,0.00,,,0.00,Wunderground v.1.15,2013-01-10 18:10:00,
2013-01-10 12:15:00,38.1,29.9,30.37,SW,229,3.0,4.0,72,0.00,,,0.00,Wunderground v.1.15,2013-01-10 18:15:00,
2013-01-10 12:20:00,38.2,29.6,30.37,SSW,203,3.0,3.0,71,0.00,,,0.00,Wunderground v.1.15,2013-01-10 18:20:00,
2013-01-10 12:25:00,38.2,29.6,30.36,South,188,4.0,4.0,71,0.00,,,0.00,Wunderground v.1.15,2013-01-10 18:25:00,
2013-01-10 12:30:00,38.0,29.4,30.36,South,171,4.0,4.0,71,0.00,,,0.00,Wunderground v.1.15,2013-01-10 18:30:00,
2013-01-10 12:35:00,38.0,29.8,30.36,South,182,4.0,6.0,72,0.00,,,0.00,Wunderground v.1.15,2013-01-10 18:35:00,
2013-01-10 12:40:00,37.8,29.6,30.35,SSW,199,4.0,4.0,72,0.00,,,0.00,Wunderground v.1.15,2013-01-10 18:40:00,
2013-01-10 12:45:00,37.8,29.9,30.35,SSW,193,4.0,4.0,73,0.00,,,0.00,Wunderground v.1.15,2013-01-10 18:45:00,
2013-01-10 12:50:00,38.2,30.3,30.35,SSE,163,4.0,4.0,73,0.00,,,0.00,Wunderground v.1.15,2013-01-10 18:50:00,
2013-01-10 12:55:00,38.2,30.3,30.35,SW,236,4.0,6.0,73,0.00,,,0.00,Wunderground v.1.15,2013-01-10 18:55:00,
2013-01-10 13:00:00,38.2,30.3,30.35,SSW,197,4.0,4.0,73,0.00,,,0.00,Wunderground v.1.15,2013-01-10 19:00:00,
2013-01-10 13:05:00,38.2,30.3,30.34,SW,225,4.0,6.0,73,0.00,,,0.00,Wunderground v.1.15,2013-01-10 19:05:00,
2013-01-10 13:10:00,38.3,30.4,30.34,WSW,242,4.0,6.0,73,0.00,,,0.00,Wunderground v.1.15,2013-01-10 19:10:00,
2013-01-10 13:15:00,38.4,30.8,30.34,South,179,3.0,6.0,74,0.00,,,0.00,Wunderground v.1.15,2013-01-10 19:15:00,
2013-01-10 13:20:00,38.3,30.7,30.33,WSW,248,3.0,3.0,74,0.00,,,0.00,Wunderground v.1.15,2013-01-10 19:20:00,
2013-01-10 13:25:00,38.2,30.6,30.33,SSW,196,3.0,4.0,74,0.00,,,0.00,Wunderground v.1.15,2013-01-10 19:25:00,
2013-01-10 13:35:00,38.0,30.8,30.32,SW,214,2.0,4.0,75,0.00,,,0.00,Wunderground v.1.15,2013-01-10 19:35:00,
2013-01-10 13:40:00,38.0,31.1,30.32,SSE,148,2.0,6.0,76,0.00,,,0.00,Wunderground v.1.15,2013-01-10 19:40:00,
2013-01-10 13:45:00,37.8,30.9,30.32,South,189,2.0,6.0,76,0.00,,,0.00,Wunderground v.1.15,2013-01-10 19:45:00,
2013-01-10 13:50:00,37.8,31.2,30.32,SSE,152,2.0,6.0,77,0.00,,,0.00,Wunderground v.1.15,2013-01-10 19:50:00,
2013-01-10 13:55:00,37.8,31.2,30.32,SSE,150,1.0,6.0,77,0.00,,,0.00,Wunderground v.1.15,2013-01-10 19:55:00,
2013-01-10 14:00:00,38.0,31.4,30.32,South,184,1.0,1.0,77,0.00,,,0.00,Wunderground v.1.15,2013-01-10 20:00:00,
2013-01-10 14:10:00,38.4,32.1,30.31,SSW,199,1.0,6.0,78,0.00,,,0.00,Wunderground v.1.15,2013-01-10 20:10:00,
2013-01-10 14:20:00,38.5,32.6,30.30,South,186,2.0,2.0,79,0.00,,,0.00,Wunderground v.1.15,2013-01-10 20:20:00,
2013-01-10 14:25:00,38.6,32.6,30.30,SW,225,2.0,6.0,79,0.00,,,0.00,Wunderground v.1.15,2013-01-10 20:25:00,
2013-01-10 14:30:00,38.6,33.0,30.30,South,186,2.0,2.0,80,0.00,,,0.00,Wunderground v.1.15,2013-01-10 20:30:00,
2013-01-10 14:35:00,38.5,33.2,30.30,SSW,204,3.0,3.0,81,0.00,,,0.00,Wunderground v.1.15,2013-01-10 20:35:00,
2013-01-10 14:40:00,38.4,33.1,30.30,SSW,201,3.0,3.0,81,0.00,,,0.00,Wunderground v.1.15,2013-01-10 20:40:00,
2013-01-10 14:45:00,38.3,33.3,30.30,WSW,246,2.0,6.0,82,0.00,,,0.00,Wunderground v.1.15,2013-01-10 20:45:00,
2013-01-10 14:50:00,38.2,33.2,30.30,South,186,2.0,2.0,82,0.00,,,0.00,Wunderground v.1.15,2013-01-10 20:50:00,
2013-01-10 15:00:00,38.0,33.3,30.30,SSW,205,2.0,2.0,83,0.00,,,0.00,Wunderground v.1.15,2013-01-10 21:00:00,
2013-01-10 15:05:00,38.0,33.3,30.30,WSW,250,1.0,6.0,83,0.00,,,0.00,Wunderground v.1.15,2013-01-10 21:05:00,
2013-01-10 15:10:00,38.0,33.3,30.30,SW,225,1.0,6.0,83,0.00,,,0.00,Wunderground v.1.15,2013-01-10 21:10:00,
2013-01-10 15:15:00,38.0,33.6,30.30,SW,225,1.0,6.0,84,0.00,,,0.00,Wunderground v.1.15,2013-01-10 21:15:00,
2013-01-10 15:20:00,38.0,33.6,30.29,SW,225,0.0,6.0,84,0.00,,,0.00,Wunderground v.1.15,2013-01-10 21:20:00,
2013-01-10 15:25:00,38.0,33.6,30.29,SSW,202,1.0,6.0,84,0.00,,,0.00,Wunderground v.1.15,2013-01-10 21:25:00,
2013-01-10 15:35:00,38.0,33.6,30.30,SSW,202,1.0,6.0,84,0.00,,,0.00,Wunderground v.1.15,2013-01-10 21:35:00,
2013-01-10 15:40:00,38.1,34.0,30.30,SSW,203,1.0,1.0,85,0.00,,,0.00,Wunderground v.1.15,2013-01-10 21:40:00,
2013-01-10 15:45:00,38.1,34.0,30.30,SSW,203,1.0,6.0,85,0.00,,,0.00,Wunderground v.1.15,2013-01-10 21:45:00,
2013-01-10 15:50:00,38.1,34.0,30.30,SSW,203,1.0,6.0,85,0.00,,,0.00,Wunderground v.1.15,2013-01-10 21:50:00,
2013-01-10 15:55:00,38.0,33.9,30.30,SW,229,1.0,6.0,85,0.00,,,0.00,Wunderground v.1.15,2013-01-10 21:55:00,
2013-01-10 16:00:00,38.0,34.2,30.29,SSW,205,1.0,6.0,86,0.00,,,0.00,Wunderground v.1.15,2013-01-10 22:00:00,
2013-01-10 16:05:00,37.9,34.1,30.29,SSW,206,1.0,6.0,86,0.00,,,0.00,Wunderground v.1.15,2013-01-10 22:05:00,
2013-01-10 16:10:00,37.8,34.0,30.28,SSW,206,0.0,6.0,86,0.00,,,0.00,Wunderground v.1.15,2013-01-10 22:10:00,
2013-01-10 16:15:00,37.6,33.8,30.29,SW,224,0.0,6.0,86,0.00,,,0.00,Wunderground v.1.15,2013-01-10 22:15:00,
2013-01-10 16:20:00,37.4,33.6,30.28,SW,224,0.0,6.0,86,0.00,,,0.00,Wunderground v.1.15,2013-01-10 22:20:00,
2013-01-10 16:25:00,37.2,33.4,30.27,ESE,121,0.0,6.0,86,0.00,,,0.00,Wunderground v.1.15,2013-01-10 22:25:00,
2013-01-10 16:35:00,36.9,33.4,30.27,South,176,1.0,6.0,87,0.00,,,0.00,Wunderground v.1.15,2013-01-10 22:35:00,
2013-01-10 16:40:00,36.7,33.2,30.27,South,180,0.0,6.0,87,0.00,,,0.00,Wunderground v.1.15,2013-01-10 22:40:00,
2013-01-10 16:45:00,36.6,33.1,30.26,SSE,166,0.0,6.0,87,0.00,,,0.00,Wunderground v.1.15,2013-01-10 22:45:00,
2013-01-10 16:50:00,36.6,33.4,30.25,South,173,1.0,1.0,88,0.00,,,0.00,Wunderground v.1.15,2013-01-10 22:50:00,
2013-01-10 17:00:00,36.4,33.2,30.25,South,173,0.0,6.0,88,0.00,,,0.00,Wunderground v.1.15,2013-01-10 23:00:00,
2013-01-10 17:05:00,36.4,33.2,30.25,South,173,0.0,6.0,88,0.00,,,0.00,Wunderground v.1.15,2013-01-10 23:05:00,
2013-01-10 17:10:00,36.2,33.0,30.24,South,173,0.0,6.0,88,0.00,,,0.00,Wunderground v.1.15,2013-01-10 23:10:00,
2013-01-10 17:15:00,36.0,32.8,30.25,South,173,0.0,6.0,88,0.00,,,0.00,Wunderground v.1.15,2013-01-10 23:15:00,
2013-01-10 17:20:00,35.8,32.6,30.25,South,173,0.0,6.0,88,0.00,,,0.00,Wunderground v.1.15,2013-01-10 23:20:00,
2013-01-10 17:30:00,35.3,32.1,30.25,South,175,0.0,6.0,88,0.00,,,0.00,Wunderground v.1.15,2013-01-10 23:30:00,
2013-01-10 17:35:00,35.3,32.1,30.24,SSW,193,0.0,6.0,88,0.00,,,0.00,Wunderground v.1.15,2013-01-10 23:35:00,
2013-01-10 17:40:00,35.6,32.7,30.24,SSE,161,1.0,6.0,89,0.00,,,0.00,Wunderground v.1.15,2013-01-10 23:40:00,
2013-01-10 17:45:00,35.7,32.8,30.24,South,182,1.0,6.0,89,0.00,,,0.00,Wunderground v.1.15,2013-01-10 23:45:00,
2013-01-10 17:50:00,35.8,32.9,30.23,South,182,1.0,1.0,89,0.00,,,0.00,Wunderground v.1.15,2013-01-10 23:50:00,
2013-01-10 17:55:00,35.9,33.0,30.23,South,182,0.0,6.0,89,0.00,,,0.00,Wunderground v.1.15,2013-01-10 23:55:00,
2013-01-10 18:00:00,35.8,32.6,30.22,South,182,0.0,6.0,88,0.00,,,0.00,Wunderground v.1.15,2013-01-11 00:00:00,
2013-01-10 18:05:00,35.9,32.7,30.22,South,182,0.0,6.0,88,0.00,,,0.00,Wunderground v.1.15,2013-01-11 00:05:00,
2013-01-10 18:10:00,35.9,32.7,30.21,South,182,0.0,6.0,88,0.00,,,0.00,Wunderground v.1.15,2013-01-11 00:10:00,
2013-01-10 18:15:00,35.9,32.7,30.21,South,182,0.0,6.0,88,0.00,,,0.00,Wunderground v.1.15,2013-01-11 00:15:00,
2013-01-10 18:20:00,35.9,32.7,30.20,South,180,0.0,6.0,88,0.00,,,0.00,Wunderground v.1.15,2013-01-11 00:20:00,
2013-01-10 18:25:00,35.9,32.7,30.20,South,180,0.0,6.0,88,0.00,,,0.00,Wunderground v.1.15,2013-01-11 00:25:00,
2013-01-10 18:30:00,35.9,32.7,30.20,South,180,0.0,6.0,88,0.00,,,0.00,Wunderground v.1.15,2013-01-11 00:30:00,
2013-01-10 18:35:00,35.9,32.7,30.20,South,180,0.0,6.0,88,0.00,,,0.00,Wunderground v.1.15,2013-01-11 00:35:00,
2013-01-10 18:40:00,35.9,32.7,30.19,South,180,0.0,6.0,88,0.00,,,0.00,Wunderground v.1.15,2013-01-11 00:40:00,
2013-01-10 18:45:00,35.9,32.7,30.19,SSW,193,1.0,6.0,88,0.00,,,0.00,Wunderground v.1.15,2013-01-11 00:45:00,
2013-01-10 18:50:00,35.9,32.7,30.18,SSE,159,1.0,1.0,88,0.00,,,0.00,Wunderground v.1.15,2013-01-11 00:50:00,
2013-01-10 18:55:00,35.9,32.7,30.18,SSE,160,1.0,6.0,88,0.00,,,0.00,Wunderground v.1.15,2013-01-11 00:55:00,
2013-01-10 19:00:00,35.9,32.7,30.18,SSE,159,0.0,6.0,88,0.00,,,0.00,Wunderground v.1.15,2013-01-11 01:00:00,
2013-01-10 19:05:00,36.0,32.8,30.19,SSE,161,0.0,6.0,88,0.00,,,0.00,Wunderground v.1.15,2013-01-11 01:05:00,
2013-01-10 19:10:00,36.1,32.9,30.18,SE,131,1.0,6.0,88,0.00,,,0.00,Wunderground v.1.15,2013-01-11 01:10:00,
2013-01-10 19:15:00,36.2,33.0,30.18,SE,134,1.0,6.0,88,0.00,,,0.00,Wunderground v.1.15,2013-01-11 01:15:00,
2013-01-10 19:20:00,36.3,33.1,30.18,SE,134,1.0,1.0,88,0.00,,,0.00,Wunderground v.1.15,2013-01-11 01:20:00,
2013-01-10 19:25:00,36.4,33.2,30.17,SE,134,1.0,6.0,88,0.00,,,0.00,Wunderground v.1.15,2013-01-11 01:25:00,
2013-01-10 19:30:00,36.4,33.2,30.17,SE,134,1.0,6.0,88,0.00,,,0.00,Wunderground v.1.15,2013-01-11 01:30:00,
2013-01-10 19:35:00,36.5,33.3,30.16,SE,134,1.0,6.0,88,0.00,,,0.00,Wunderground v.1.15,2013-01-11 01:35:00,
2013-01-10 19:40:00,36.5,33.3,30.16,SE,134,1.0,1.0,88,0.00,,,0.00,Wunderground v.1.15,2013-01-11 01:40:00,
2013-01-10 19:50:00,36.8,33.3,30.15,ESE,119,1.0,6.0,87,0.00,,,0.00,Wunderground v.1.15,2013-01-11 01:50:00,
2013-01-10 19:55:00,36.8,33.3,30.15,SE,134,1.0,6.0,87,0.00,,,0.00,Wunderground v.1.15,2013-01-11 01:55:00,
2013-01-10 20:00:00,36.9,33.4,30.14,SE,134,1.0,6.0,87,0.00,,,0.00,Wunderground v.1.15,2013-01-11 02:00:00,
2013-01-10 20:10:00,36.9,33.4,30.14,SE,134,0.0,6.0,87,0.00,,,0.00,Wunderground v.1.15,2013-01-11 02:10:00,
2013-01-10 20:15:00,36.9,33.4,30.14,SE,134,0.0,6.0,87,0.00,,,0.00,Wunderground v.1.15,2013-01-11 02:15:00,
2013-01-10 20:20:00,36.9,33.4,30.13,SE,134,0.0,6.0,87,0.00,,,0.00,Wunderground v.1.15,2013-01-11 02:20:00,
2013-01-10 20:30:00,36.6,33.1,30.12,SE,134,0.0,6.0,87,0.00,,,0.00,Wunderground v.1.15,2013-01-11 02:30:00,
2013-01-10 20:35:00,36.5,33.0,30.12,SE,134,0.0,6.0,87,0.00,,,0.00,Wunderground v.1.15,2013-01-11 02:35:00,
2013-01-10 20:40:00,36.5,33.0,30.11,South,173,1.0,1.0,87,0.00,,,0.01,Wunderground v.1.15,2013-01-11 02:40:00,
2013-01-10 20:45:00,36.5,33.3,30.11,South,173,1.0,6.0,88,0.00,,,0.01,Wunderground v.1.15,2013-01-11 02:45:00,
2013-01-10 20:50:00,36.5,33.3,30.10,South,173,0.0,6.0,88,0.00,,,0.01,Wunderground v.1.15,2013-01-11 02:50:00,
2013-01-10 20:55:00,36.4,33.2,30.09,SE,142,0.0,6.0,88,0.00,,,0.01,Wunderground v.1.15,2013-01-11 02:55:00,
2013-01-10 21:05:00,36.4,33.2,30.09,SSE,163,0.0,6.0,88,0.00,,,0.02,Wunderground v.1.15,2013-01-11 03:05:00,
2013-01-10 21:10:00,36.4,33.2,30.08,SSE,162,0.0,6.0,88,0.00,,,0.02,Wunderground v.1.15,2013-01-11 03:10:00,
2013-01-10 21:15:00,36.4,33.5,30.08,SSE,157,0.0,6.0,89,0.00,,,0.02,Wunderground v.1.15,2013-01-11 03:15:00,
2013-01-10 21:20:00,36.4,33.5,30.07,South,171,1.0,6.0,89,0.00,,,0.02,Wunderground v.1.15,2013-01-11 03:20:00,
2013-01-10 21:30:00,36.4,33.5,30.06,SSE,167,1.0,6.0,89,0.00,,,0.03,Wunderground v.1.15,2013-01-11 03:30:00,
2013-01-10 21:40:00,36.4,33.5,30.06,South,171,3.0,3.0,89,0.14,,,0.05,Wunderground v.1.15,2013-01-11 03:40:00,
2013-01-10 21:45:00,36.3,33.4,30.06,SSW,197,2.0,6.0,89,0.13,,,0.06,Wunderground v.1.15,2013-01-11 03:45:00,
2013-01-10 21:50:00,36.3,33.4,30.05,SSE,165,2.0,6.0,89,0.08,,,0.07,Wunderground v.1.15,2013-01-11 03:50:00,
2013-01-10 21:55:00,36.3,33.4,30.05,SSW,195,3.0,6.0,89,0.10,,,0.08,Wunderground v.1.15,2013-01-11 03:55:00,
2013-01-10 22:00:00,36.3,33.4,30.05,SSW,204,3.0,3.0,89,0.10,,,0.09,Wunderground v.1.15,2013-01-11 04:00:00,
2013-01-10 22:05:00,36.2,33.5,30.04,South,180,3.0,6.0,90,0.17,,,0.10,Wunderground v.1.15,2013-01-11 04:05:00,
2013-01-10 22:10:00,36.1,33.5,30.04,SW,219,4.0,4.0,90,0.25,,,0.12,Wunderground v.1.15,2013-01-11 04:10:00,
2013-01-10 22:15:00,36.1,33.5,30.03,South,170,4.0,6.0,90,0.17,,,0.13,Wunderground v.1.15,2013-01-11 04:15:00,
2013-01-10 22:20:00,35.9,33.3,30.02,SSE,163,4.0,6.0,90,0.29,,,0.16,Wunderground v.1.15,2013-01-11 04:20:00,
2013-01-10 22:25:00,35.9,33.3,30.01,SSW,195,4.0,6.0,90,0.22,,,0.17,Wunderground v.1.15,2013-01-11 04:25:00,
2013-01-10 22:30:00,35.8,33.2,30.01,SSW,205,5.0,6.0,90,0.14,,,0.18,Wunderground v.1.15,2013-01-11 04:30:00,
2013-01-10 22:35:00,35.7,33.3,30.01,SW,227,4.0,6.0,91,0.13,,,0.19,Wunderground v.1.15,2013-01-11 04:35:00,
2013-01-10 22:40:00,35.7,33.3,30.01,South,178,4.0,9.0,91,0.07,,,0.19,Wunderground v.1.15,2013-01-11 04:40:00,
2013-01-10 22:45:00,35.8,33.4,30.00,SSE,157,4.0,9.0,91,0.04,,,0.19,Wunderground v.1.15,2013-01-11 04:45:00,
2013-01-10 22:50:00,35.8,33.4,30.01,South,175,4.0,6.0,91,0.04,,,0.20,Wunderground v.1.15,2013-01-11 04:50:00,
2013-01-10 22:55:00,35.8,33.4,30.00,SSW,211,4.0,6.0,91,0.08,,,0.21,Wunderground v.1.15,2013-01-11 04:55:00,
2013-01-10 23:00:00,35.8,33.4,30.00,South,187,4.0,4.0,91,0.08,,,0.21,Wunderground v.1.15,2013-01-11 05:00:00,
2013-01-10 23:05:00,35.8,33.4,30.00,South,185,4.0,6.0,91,0.06,,,0.22,Wunderground v.1.15,2013-01-11 05:05:00,
2013-01-10 23:10:00,35.8,33.4,30.00,South,184,4.0,6.0,91,0.06,,,0.22,Wunderground v.1.15,2013-01-11 05:10:00,
2013-01-10 23:15:00,35.8,33.4,29.99,SSW,213,4.0,6.0,91,0.08,,,0.23,Wunderground v.1.15,2013-01-11 05:15:00,
2013-01-10 23:25:00,35.7,33.3,29.99,South,190,3.0,6.0,91,0.07,,,0.24,Wunderground v.1.15,2013-01-11 05:25:00,
2013-01-10 23:30:00,35.7,33.6,29.98,South,184,2.0,2.0,92,0.08,,,0.25,Wunderground v.1.15,2013-01-11 05:30:00,
2013-01-10 23:35:00,35.7,33.6,29.98,South,173,1.0,6.0,92,0.09,,,0.25,Wunderground v.1.15,2013-01-11 05:35:00,
2013-01-10 23:40:00,35.6,33.5,29.98,South,184,2.0,2.0,92,0.09,,,0.26,Wunderground v.1.15,2013-01-11 05:40:00,
2013-01-10 23:45:00,35.6,33.5,29.97,SSE,150,2.0,4.0,92,0.09,,,0.27,Wunderground v.1.15,2013-01-11 05:45:00,
2013-01-10 23:50:00,35.5,33.4,29.97,South,182,1.0,1.0,92,0.08,,,0.28,Wunderground v.1.15,2013-01-11 05:50:00,
2013-01-10 23:55:00,35.6,33.5,29.96,South,187,2.0,2.0,92,0.08,,,0.28,Wunderground v.1.15,2013-01-11 05:55:00,